• în România
  • Lista ţărilor
  • Pe 7 zile
  • Temperatura apei
  • Hartă satelitară
  • Meteo pe hartă
  • Widget-uri
  • user-avatar
    Intrare

    Meteo pe oră la Barra

    Astăzi, 20 Ianuarie, Sâmbătă

    Timp Temperatura Precipitaţii Vânt Presiune Umiditate
    00:00 +24°C° 0 mm 3 m/s 747 mmHg 90%
    01:00 +24°C° 0 mm 3 m/s 746 mmHg 91%
    02:00 +24°C° 0 mm 3 m/s 746 mmHg 92%
    03:00 +22°C° 0 mm 3 m/s 746 mmHg 92%
    04:00 +22°C° 0 mm 3 m/s 745 mmHg 93%
    05:00 +24°C° 0 mm 3 m/s 746 mmHg 92%
    06:00 +24°C° 0 mm 3 m/s 746 mmHg 90%
    07:00 +24°C° 0 mm 3 m/s 746 mmHg 89%
    08:00 +26°C° 0 mm 3 m/s 746 mmHg 80%
    09:00 +28°C° 0 mm 4 m/s 746 mmHg 72%
    10:00 +30°C° 0 mm 4 m/s 746 mmHg 64%
    11:00 +32°C° 0 mm 4 m/s 746 mmHg 61%
    12:00 +32°C° 0 mm 4 m/s 745 mmHg 58%
    13:00 +33°C° 0 mm 4 m/s 745 mmHg 55%
    14:00 +33°C° 0 mm 4 m/s 745 mmHg 56%
    15:00 +32°C° 0 mm 4 m/s 744 mmHg 58%
    16:00 +32°C° 0 mm 4 m/s 744 mmHg 59%
    17:00 +29°C° 0 mm 4 m/s 744 mmHg 66%
    18:00 +28°C° 0 mm 3 m/s 744 mmHg 73%
    19:00 +26°C° 0 mm 3 m/s 745 mmHg 80%
    20:00 +26°C° 0,2 mm 3 m/s 745 mmHg 83%
    21:00 +25°C° 0,2 mm 3 m/s 746 mmHg 85%
    22:00 +25°C° 0,2 mm 2 m/s 746 mmHg 88%
    23:00 +25°C° 0,2 mm 2 m/s 746 mmHg 88%

    Mâine, 21 Ianuarie, Duminică

    Timp Temperatura Precipitaţii Vânt Presiune Umiditate
    00:00 +25°C° 0,2 mm 2 m/s 745 mmHg 89%
    01:00 +24°C° 0,2 mm 2 m/s 745 mmHg 90%
    02:00 +24°C° 0,1 mm 2 m/s 745 mmHg 90%
    03:00 +24°C° 0,1 mm 2 m/s 745 mmHg 90%
    04:00 +24°C° 0,1 mm 2 m/s 744 mmHg 90%
    05:00 +24°C° 0,1 mm 2 m/s 745 mmHg 89%
    06:00 +24°C° 0,1 mm 2 m/s 745 mmHg 88%
    07:00 +25°C° 0,1 mm 2 m/s 745 mmHg 88%
    08:00 +25°C° 0,1 mm 2 m/s 745 mmHg 85%
    09:00 +26°C° 0,1 mm 2 m/s 745 mmHg 82%
    10:00 +27°C° 0,1 mm 3 m/s 745 mmHg 79%
    11:00 +26°C° 0,9 mm 3 m/s 745 mmHg 84%
    12:00 +25°C° 0,9 mm 3 m/s 745 mmHg 89%
    13:00 +25°C° 0,9 mm 3 m/s 745 mmHg 95%
    14:00 +25°C° 0,5 mm 3 m/s 744 mmHg 94%
    15:00 +25°C° 0,5 mm 3 m/s 744 mmHg 94%
    16:00 +25°C° 0,5 mm 3 m/s 743 mmHg 94%
    17:00 +25°C° 0,1 mm 3 m/s 744 mmHg 94%
    18:00 +25°C° 0,1 mm 3 m/s 744 mmHg 94%
    19:00 +25°C° 0,1 mm 3 m/s 744 mmHg 93%
    20:00 +25°C° 0,1 mm 3 m/s 745 mmHg 94%
    21:00 +25°C° 0,1 mm 3 m/s 745 mmHg 95%
    22:00 +25°C° 0,1 mm 3 m/s 745 mmHg 96%
    23:00 +25°C° 0,6 mm 3 m/s 745 mmHg 96%

    Poimâine, 22 Ianuarie, Luni

    Timp Temperatura Precipitaţii Vânt Presiune Umiditate
    00:00 +25°C° 0,6 mm 3 m/s 745 mmHg 96%
    01:00 +25°C° 0,6 mm 3 m/s 745 mmHg 96%
    02:00 +25°C° 0,3 mm 3 m/s 744 mmHg 96%
    03:00 +25°C° 0,3 mm 3 m/s 744 mmHg 96%
    04:00 +25°C° 0,3 mm 3 m/s 743 mmHg 95%
    05:00 +25°C° 0,2 mm 4 m/s 744 mmHg 95%
    06:00 +25°C° 0,2 mm 4 m/s 744 mmHg 95%
    07:00 +25°C° 0,2 mm 4 m/s 744 mmHg 95%
    08:00 +25°C° 0,8 mm 4 m/s 745 mmHg 94%
    09:00 +26°C° 0,8 mm 3 m/s 745 mmHg 93%
    10:00 +26°C° 0,8 mm 3 m/s 746 mmHg 92%
    11:00 +26°C° 0,9 mm 4 m/s 745 mmHg 91%
    12:00 +27°C° 0,9 mm 4 m/s 744 mmHg 90%
    13:00 +27°C° 0,9 mm 4 m/s 744 mmHg 88%
    14:00 +27°C° 0,8 mm 4 m/s 743 mmHg 90%
    15:00 +26°C° 0,8 mm 4 m/s 743 mmHg 91%
    16:00 +26°C° 0,8 mm 4 m/s 743 mmHg 92%
    17:00 +26°C° 0,7 mm 4 m/s 743 mmHg 93%
    18:00 +25°C° 0,7 mm 4 m/s 743 mmHg 94%
    19:00 +25°C° 0,7 mm 4 m/s 744 mmHg 95%
    20:00 +25°C° 0,8 mm 4 m/s 744 mmHg 96%
    21:00 +25°C° 0,8 mm 4 m/s 745 mmHg 96%
    22:00 +25°C° 0,8 mm 4 m/s 745 mmHg 97%
    23:00 +25°C° 1,4 mm 4 m/s 745 mmHg 97%

    23 Ianuarie, Marţi

    Timp Temperatura Precipitaţii Vânt Presiune Umiditate
    00:00 +25°C° 1,4 mm 4 m/s 744 mmHg 97%
    01:00 +25°C° 1,4 mm 3 m/s 744 mmHg 97%
    02:00 +25°C° 1,3 mm 4 m/s 744 mmHg 97%
    03:00 +25°C° 1,3 mm 4 m/s 743 mmHg 97%
    04:00 +25°C° 1,3 mm 4 m/s 743 mmHg 97%
    05:00 +25°C° 2,7 mm 4 m/s 744 mmHg 97%
    06:00 +23°C° 2,7 mm 4 m/s 744 mmHg 97%
    07:00 +23°C° 2,7 mm 4 m/s 744 mmHg 97%
    08:00 +23°C° 4,8 mm 4 m/s 745 mmHg 98%
    09:00 +25°C° 4,8 mm 4 m/s 745 mmHg 98%
    10:00 +25°C° 4,8 mm 4 m/s 745 mmHg 98%
    11:00 +25°C° 4,4 mm 3 m/s 744 mmHg 96%
    12:00 +26°C° 4,4 mm 3 m/s 744 mmHg 95%
    13:00 +26°C° 4,4 mm 2 m/s 744 mmHg 93%
    14:00 +26°C° 1,5 mm 2 m/s 743 mmHg 93%
    15:00 +27°C° 1,5 mm 2 m/s 743 mmHg 93%
    16:00 +27°C° 1,5 mm 1 m/s 743 mmHg 93%
    17:00 +26°C° 2,3 mm 1 m/s 743 mmHg 95%
    18:00 +26°C° 2,3 mm 1 m/s 743 mmHg 97%
    19:00 +25°C° 2,3 mm 2 m/s 744 mmHg 98%
    20:00 +25°C° 2,2 mm 2 m/s 744 mmHg 98%
    21:00 +25°C° 2,2 mm 2 m/s 744 mmHg 98%
    22:00 +25°C° 2,2 mm 2 m/s 745 mmHg 98%
    23:00 +25°C° 3 mm 2 m/s 744 mmHg 98%

    24 Ianuarie, Miercuri

    Timp Temperatura Precipitaţii Vânt Presiune Umiditate
    00:00 +25°C° 3 mm 3 m/s 744 mmHg 98%
    01:00 +25°C° 3 mm 3 m/s 743 mmHg 98%
    02:00 +25°C° 3,2 mm 3 m/s 743 mmHg 98%
    03:00 +25°C° 3,2 mm 3 m/s 743 mmHg 98%
    04:00 +25°C° 3,2 mm 3 m/s 742 mmHg 98%
    05:00 +25°C° 3,7 mm 3 m/s 743 mmHg 98%
    06:00 +25°C° 3,7 mm 3 m/s 743 mmHg 98%
    07:00 +25°C° 3,7 mm 2 m/s 743 mmHg 98%
    08:00 +26°C° 1,7 mm 2 m/s 744 mmHg 96%
    09:00 +27°C° 1,7 mm 2 m/s 744 mmHg 94%
    10:00 +27°C° 1,7 mm 2 m/s 744 mmHg 92%
    11:00 +27°C° 1,5 mm 2 m/s 743 mmHg 93%
    12:00 +27°C° 1,5 mm 3 m/s 743 mmHg 95%
    13:00 +27°C° 1,5 mm 3 m/s 742 mmHg 96%
    14:00 +27°C° 1,8 mm 3 m/s 742 mmHg 96%
    15:00 +27°C° 1,8 mm 3 m/s 742 mmHg 96%
    16:00 +27°C° 1,8 mm 4 m/s 742 mmHg 96%
    17:00 +26°C° 0,5 mm 3 m/s 742 mmHg 96%
    18:00 +26°C° 0,5 mm 3 m/s 742 mmHg 97%
    19:00 +26°C° 0,5 mm 3 m/s 742 mmHg 98%
    20:00 +26°C° 0,7 mm 3 m/s 743 mmHg 98%
    21:00 +25°C° 0,7 mm 2 m/s 743 mmHg 98%
    22:00 +25°C° 0,7 mm 2 m/s 744 mmHg 98%
    23:00 +25°C° 1,1 mm 2 m/s 743 mmHg 98%

    25 Ianuarie, Joi

    Timp Temperatura Precipitaţii Vânt Presiune Umiditate
    00:00 +25°C° 1,1 mm 1 m/s 743 mmHg 98%
    01:00 +25°C° 1,1 mm 1 m/s 742 mmHg 98%
    02:00 +25°C° 0,5 mm 1 m/s 742 mmHg 98%
    03:00 +25°C° 0,5 mm 1 m/s 742 mmHg 98%
    04:00 +25°C° 0,5 mm 1 m/s 742 mmHg 98%
    05:00 +25°C° 0,1 mm 1 m/s 742 mmHg 98%
    06:00 +25°C° 0,1 mm 1 m/s 743 mmHg 97%
    07:00 +25°C° 0,1 mm 1 m/s 743 mmHg 97%
    08:00 +27°C° 0,1 mm 1 m/s 743 mmHg 90%
    09:00 +29°C° 0,1 mm 1 m/s 743 mmHg 83%
    10:00 +30°C° 0,1 mm 1 m/s 743 mmHg 77%
    11:00 +31°C° 0,2 mm 1 m/s 743 mmHg 74%
    12:00 +31°C° 0,2 mm 1 m/s 742 mmHg 71%
    13:00 +32°C° 0,2 mm 1 m/s 742 mmHg 69%
    14:00 +31°C° 0,4 mm 1 m/s 741 mmHg 72%
    15:00 +31°C° 0,4 mm 1 m/s 741 mmHg 76%
    16:00 +30°C° 0,4 mm 1 m/s 740 mmHg 80%
    17:00 +29°C° 0,2 mm 1 m/s 741 mmHg 83%
    18:00 +26°C° 0,2 mm 0 m/s 741 mmHg 87%
    19:00 +25°C° 0,2 mm 0 m/s 742 mmHg 90%
    20:00 +27°C° 0,5 mm 1 m/s 742 mmHg 92%
    21:00 +27°C° 0,5 mm 1 m/s 743 mmHg 93%
    22:00 +26°C° 0,5 mm 1 m/s 743 mmHg 95%
    23:00 +26°C° 1,1 mm 2 m/s 742 mmHg 95%
    Arată mai mult